Dewpoint
49 49 48 48 47 48 49 50 50 48 48 48 48 49 50 51 51 54 53 52 47 44 46 47 47 42 41 40 36 39 37 36 31 27 24 25 21 28 28 28 30 29 28 28 22 14 18 28 32 27 31 33 37 37
48 48 47 47 48 49 49 49 48 48 48 48 48 49 50 51 51 53 53 53 51 47 46 48 48 48 47 41 42 39 37 37 36 30 26 27 26 31 26 23 31 25 27 26 27 27 29 30 32 35 35 35 37 38
47 47 47 48 48 49 49 47 47 48 48 48 48 50 50 51 50 53 52 48 47 43 45 46 45 48 48 48 46 39 39 41 39 37 32 29 23 29 25 28 28 32 31 28 28 27 31 33 34 39 39 38 38 39
47 47 47 48 49 48 47 47 47 48 48 48 49 50 50 50 51 51 50 48 44 42 36 41 47 45 47 50 49 46 44 42 40 37 32 30 24 32 27 28 28 31 32 30 30 32 34 37 39 37 39 39 39 40
47 48 48 48 48 47 47 47 48 48 48 48 49 50 50 50 51 51 50 50 48 38 38 36 44 45 47 49 47 46 44 42 39 36 34 32 29 32 34 32 32 34 32 30 28 31 32 32 37 39 39 40 39 33
48 48 48 48 47 47 47 47 47 48 48 47 48 49 49 49 48 43 42 48 49 45 40 34 41 42 44 46 46 46 46 43 40 37 34 36 39 34 33 34 36 36 37 34 32 37 37 38 39 40 39 39 31 28
47 48 48 47 46 47 47 47 48 48 48 48 48 49 49 49 50 42 38 47 47 45 38 35 34 39 41 43 41 42 42 41 41 38 34 36 35 37 33 31 34 37 38 38 39 39 37 37 38 40 34 28 26 25
47 48 47 46 46 46 47 47 48 49 48 48 48 48 48 48 48 46 47 46 46 39 36 32 31 33 40 37 37 41 37 38 39 39 37 34 37 34 33 36 38 39 40 40 40 39 39 34 26 25 25 28 32 33
47 46 46 46 46 46 47 47 48 48 47 48 47 47 47 46 44 45 46 46 44 40 33 27 29 28 39 37 36 37 38 34 38 34 36 36 33 33 35 34 36 37 37 38 38 31 28 29 32 34 35 35 34 31
46 46 46 45 46 46 47 47 48 47 46 46 46 42 37 43 45 45 42 37 37 36 38 32 35 33 38 34 34 33 34 32 27 30 37 33 33 34 32 32 32 33 36 39 31 30 32 34 35 35 35 34 32 29
46 46 46 46 46 46 47 47 46 46 46 43 40 37 43 44 42 36 32 32 35 29 36 35 35 34 38 34 32 31 31 32 29 27 32 30 30 32 33 34 35 36 36 35 35 36 35 35 34 33 32 30 27 26
45 45 46 46 46 46 46 45 45 44 42 42 42 41 39 37 35 33 32 33 32 28 34 34 34 37 35 35 34 34 31 31 27 32 32 28 28 32 36 36 37 37 37 37 37 36 36 36 35 30 24 23 24 27
44 44 44 45 45 45 45 45 44 44 43 40 36 33 34 32 33 31 31 32 32 33 34 33 33 33 35 35 33 33 31 30 33 31 29 30 30 36 37 36 35 34 34 34 33 32 29 26 26 25 26 26 26 27
43 43 44 44 44 45 45 45 44 43 41 35 33 33 32 31 31 31 32 32 32 32 33 33 32 33 32 33 32 32 31 31 29 25 21 32 34 31 25 26 25 25 25 25 24 25 26 27 27 26 25 24 23 25
43 43 43 43 43 43 43 44 43 41 37 33 33 28 28 30 31 32 32 33 32 34 33 33 33 34 32 31 31 29 24 19 21 19 29 31 32 31 32 31 25 25 23 25 25 25 23 23 24 25 25 26 26 21
42 42 41 43 43 42 41 39 38 37 33 32 30 29 31 31 31 32 32 32 34 33 33 33 31 28 28 26 23 21 21 15 21 29 29 32 32 34 34 34 27 27 27 27 27 26 26 23 22 26 26 25 20 19
41 40 42 42 42 41 39 35 35 30 29 30 31 33 32 32 32 32 33 33 35 33 30 30 22 22 27 21 21 25 20 26 31 32 33 33 33 34 34 29 28 27 26 27 27 27 28 28 24 25 26 28 28 28
38 38 41 42 39 36 34 32 29 29 30 31 30 30 31 32 32 32 32 33 32 32 30 26 28 19 17 17 18 24 26 27 29 29 31 32 30 28 28 28 28 27 27 28 27 28 27 26 27 27 27 26 26 25
38 39 40 40 37 31 29 30 30 27 30 30 30 30 30 31 31 32 32 32 28 26 26 22 17 18 19 22 20 27 30 24 26 27 27 27 28 28 28 28 28 28 27 27 27 26 26 27 25 23 22 21 22 22
38 39 38 39 36 29 26 26 29 27 28 30 30 29 29 29 30 32 32 32 30 26 20 19 19 21 22 24 26 27 26 26 26 24 24 26 27 26 26 25 25 26 24 23 23 20 21 21 21 20 19 19 19 20
35 36 36 34 32 30 29 27 28 30 30 29 30 29 28 29 29 29 30 30 23 19 22 23 19 24 27 27 26 26 27 27 25 23 23 25 25 24 24 23 22 21 19 18 17 16 14 16 17 16 14 16 16 17
34 36 28 31 28 24 30 32 30 30 30 28 28 29 26 26 26 27 29 25 23 23 26 25 27 27 27 26 26 26 26 26 25 23 22 21 20 21 19 17 15 13 14 13 14 12 11 13 12 11 9 10 12 12
35 31 29 25 20 20 24 31 25 27 26 26 27 24 25 25 27 28 25 27 27 28 27 28 27 26 25 23 22 22 23 21 20 21 21 21 20 19 17 14 12 8 7 9 10 10 9 5 7 5 6 6 7 6
31 29 26 25 24 22 24 17 25 21 20 23 24 22 22 24 25 23 22 24 27 26 26 27 25 24 23 20 17 17 19 20 19 17 18 18 15 14 15 13 10 9 7 6 5 1 2 -2 -1 2 1 -0 1 3
16 19 17 9 21 11 17 11 17 21 10 11 15 15 20 17 17 18 17 22 23 23 23 26 26 25 21 20 18 15 16 19 18 14 13 11 9 8 9 8 9 8 6 -3 -2 -5 -5 -5 -4 -4 -3 -4 -2 0
11 15 15 6 8 11 8 7 6 10 12 14 17 19 15 14 13 13 19 20 21 21 20 21 21 19 17 19 16 14 11 13 16 12 10 9 6 2 -3 -5 -4 -2 3 -8 -11 -11 -6 -4 -4 -6 -6 -4 -2 -1
10 9 18 26 22 21 16 14 16 17 17 20 19 18 20 17 13 15 20 20 20 20 21 20 22 19 15 12 10 9 10 11 11 11 10 9 7 5 -3 -9 -8 -1 3 -3 -13 -17 -12 -7 -6 -5 -4 -3 -3 0
16 14 11 12 18 21 18 16 16 18 17 25 23 19 18 15 12 16 18 20 18 18 16 15 14 12 10 8 7 5 7 10 9 7 5 4 3 -3 -6 -7 -7 3 -8 -15 -17 -14 -13 -8 -4 -3 -3 -1 -4 -8
17 20 20 14 16 21 20 20 22 24 25 25 21 16 12 12 12 13 16 17 17 14 11 10 8 8 7 6 3 1 -2 -7 -8 -10 -13 -16 -15 -8 -7 -15 -16 -15 -18 -16 -8 -1 -1 -4 -4 -9 -14 -15 -12 -14
16 21 16 12 16 17 19 22 19 22 21 19 17 14 11 10 11 13 13 11 8 4 0 0 0 -0 -9 -10 -12 -8 -12 -18 -14 -11 -15 -17 -11 -7 -16 -20 -18 -16 -21 -24 -21 -18 -9 -17 -15 -20 -19 -19 -21 -23
18 17 13 14 13 16 18 22 23 23 21 15 12 8 7 6 8 9 6 4 4 -0 -6 -11 -12 -20 -15 -16 -17 -17 -13 -15 -18 -14 -13 -16 -15 -18 -18 -19 -22 -25 -27 -27 -28 -28 -27 -27 -29 -29 -26 -23 -23 -24
21 19 13 13 15 15 12 15 13 19 18 17 7 -1 -2 -3 -9 -0 -0 -4 -8 -10 -15 -21 -15 -11 -15 -16 -19 -19 -13 -16 -16 -16 -17 -15 -15 -15 -19 -20 -26 -27 -26 -26 -28 -29 -28 -28 -29 -29 -29 -28 -27 -25
10 5 7 4 8 10 7 -3 -2 2 6 7 -2 -2 -7 -3 -7 -2 -0 -8 -9 -12 -14 -16 -16 -19 -17 -16 -16 -18 -17 -19 -19 -8 -6 -6 -11 -12 -20 -25 -27 -27 -25 -27 -29 -31 -27 -26 -27 -28 -29 -30 -29 -29
Lifted_Index
4 4 5 5 5 4 3 3 2 1 0 -0 -1 -1 0 1 1 0 -0 -0 0 1 1 1 1 1 1 1 1 2 2 2 3 3 3 3 3 4 5 5 5 5 5 5 5 4 5 6 6 5 5 5 5 5
4 5 5 5 4 4 3 2 2 1 0 -0 -1 -1 -0 0 0 0 -0 0 0 1 1 1 1 1 1 2 2 2 2 2 3 3 3 4 4 5 5 5 5 5 6 6 5 5 5 6 6 5 5 5 5 5
4 5 5 4 4 3 2 2 2 1 0 -1 -1 -1 -0 -0 -0 -0 -0 0 1 1 1 1 1 1 2 2 2 2 2 2 3 3 4 4 5 6 6 6 6 6 6 6 6 6 6 6 5 5 5 4 4 4
4 4 4 4 3 3 2 2 2 1 -0 -1 -1 -1 -1 -0 -0 -0 0 1 2 2 1 1 1 1 1 2 2 2 2 2 3 3 4 5 6 6 7 7 7 6 6 6 6 6 5 5 5 4 4 4 3 3
4 4 4 3 3 3 2 2 2 1 0 -0 -1 -1 -1 -1 -0 0 1 2 3 3 2 1 1 1 1 1 1 1 1 2 2 3 4 5 5 6 6 6 6 5 5 5 5 5 5 5 4 4 3 3 3 3
4 4 4 3 3 3 2 2 2 2 1 0 -0 -1 -1 -0 1 1 2 2 3 3 3 2 2 2 1 1 1 1 1 2 2 3 3 4 4 5 6 5 4 4 4 4 5 4 4 4 3 3 3 3 3 3
3 4 4 3 3 3 2 2 2 1 1 1 0 -0 -0 0 1 2 2 2 2 3 4 4 4 3 2 2 2 2 2 2 3 3 3 3 4 4 4 4 4 3 3 4 4 4 4 3 3 3 2 2 3 3
3 3 3 3 3 3 3 2 2 1 1 1 1 1 1 1 1 1 1 2 3 4 4 5 4 4 3 2 2 2 2 3 3 3 3 3 3 4 4 3 3 3 3 3 4 4 3 3 3 3 2 3 3 4
3 3 3 3 3 3 3 2 2 2 2 2 2 2 2 2 2 1 1 2 3 4 4 4 4 3 3 2 2 2 3 3 3 3 3 3 4 4 3 3 3 3 4 4 4 4 3 3 3 3 3 4 5 6
3 3 3 3 3 3 3 3 2 2 2 2 2 2 2 2 2 2 2 2 3 3 4 3 3 3 3 3 2 2 3 3 3 3 3 3 4 4 3 4 4 4 5 5 4 4 4 4 4 4 6 7 8 9
3 3 3 3 3 3 3 3 2 3 3 3 2 2 2 2 2 3 3 3 3 3 3 3 3 3 3 3 3 3 3 3 3 3 3 4 4 4 5 5 5 6 6 5 5 5 6 6 7 7 8 9 10 10
4 4 4 4 4 3 3 3 3 3 3 2 2 2 2 2 2 3 3 3 3 3 3 3 2 3 3 3 3 3 3 3 3 4 4 4 4 5 6 6 7 7 7 7 7 7 8 8 9 9 10 10 11 10
6 5 5 4 4 3 3 3 3 3 3 2 2 2 2 2 2 3 3 3 3 3 3 3 2 3 3 3 3 3 3 3 3 3 3 4 5 6 7 8 8 8 9 9 9 9 10 10 10 10 10 10 10 10
7 6 6 5 4 4 3 3 3 3 2 2 2 2 2 2 3 3 3 3 3 3 3 3 3 3 3 3 2 2 3 3 3 3 3 5 6 7 8 8 9 9 10 10 10 10 10 10 10 10 10 10 10 10
7 7 7 6 6 5 4 4 3 3 3 2 2 2 2 3 3 3 3 3 3 4 3 3 3 3 3 3 3 3 2 2 3 3 4 6 7 8 8 9 9 9 9 9 9 9 9 9 10 10 10 9 9 9
8 8 8 8 7 6 6 5 4 4 4 3 3 3 3 3 3 3 3 4 4 4 4 4 3 3 3 3 3 3 2 3 3 4 6 7 7 7 8 8 8 8 8 8 8 8 9 9 9 9 8 8 7 7
9 9 9 9 8 8 7 6 6 6 5 5 5 5 4 4 4 4 5 5 6 5 4 4 4 3 3 3 3 3 3 4 5 6 6 7 7 7 7 7 7 7 7 7 7 8 8 8 8 7 7 7 7 7
10 10 10 9 9 8 8 8 7 7 7 7 7 6 6 6 6 6 6 7 6 6 5 5 4 4 4 3 3 4 4 5 6 6 6 6 6 6 6 6 6 6 7 7 7 7 7 7 7 7 7 8 8 8
10 10 10 9 8 8 8 8 7 7 7 7 7 7 7 7 7 7 7 7 7 6 6 5 5 5 4 4 4 5 6 6 6 6 6 6 6 6 6 6 6 6 7 7 7 7 7 7 7 8 9 9 9 9
10 9 9 8 8 7 7 7 7 7 6 6 6 6 6 6 6 6 6 6 6 6 6 6 5 5 5 6 6 6 6 6 6 6 6 6 6 6 6 6 6 7 7 7 7 7 7 8 9 9 10 10 10 10
9 9 8 8 7 7 6 6 6 6 6 6 6 5 5 5 5 5 6 6 6 6 6 6 6 6 6 6 6 6 6 6 6 6 6 5 5 6 6 6 6 7 7 7 7 7 8 9 10 11 11 11 11 12
9 9 8 8 7 7 7 7 7 6 6 6 6 6 5 5 5 6 6 6 6 6 6 6 6 6 6 6 6 6 6 6 5 5 5 6 6 6 6 6 6 6 7 7 8 9 10 11 12 12 12 12 13 13
9 9 9 8 8 7 7 7 7 7 7 7 6 6 6 6 6 6 6 5 6 6 7 6 6 6 6 6 5 5 5 5 5 5 6 6 6 6 6 6 7 7 8 9 10 11 12 12 13 13 13 13 13 13
9 9 9 9 8 8 8 8 7 7 7 7 7 7 6 6 6 6 6 5 6 6 7 6 6 5 5 5 4 4 4 5 5 5 6 6 6 6 7 8 9 10 11 11 12 12 13 13 13 13 13 13 13 13
9 9 9 9 8 8 8 8 8 7 7 7 7 7 7 6 6 6 5 5 6 6 6 6 5 5 5 4 4 4 5 6 6 6 6 7 8 8 9 10 11 12 13 13 13 13 13 13 13 13 13 13 13 13
8 8 8 8 8 8 7 7 7 7 7 6 6 6 6 5 4 4 4 5 5 6 6 6 5 5 5 5 5 6 7 7 7 7 8 9 10 10 11 11 11 12 14 14 13 13 13 13 13 13 13 14 14 14
6 6 6 6 6 6 6 5 5 5 5 4 4 4 3 3 3 3 4 5 6 6 7 7 6 6 6 7 7 8 9 9 10 10 11 12 13 13 13 12 12 13 14 15 14 14 14 14 14 14 14 14 15 15
4 4 4 4 4 4 3 3 3 3 2 2 2 2 2 2 2 3 5 7 8 8 8 8 8 8 8 9 10 10 11 11 12 12 12 13 14 14 14 14 14 15 15 15 15 15 15 15 14 14 14 14 15 15
3 3 3 3 3 3 3 3 2 2 2 2 2 2 2 3 4 6 8 9 9 9 8 8 9 9 10 10 11 12 12 12 12 12 11 12 12 14 15 15 15 15 16 16 16 16 15 15 15 15 14 14 15 15
4 4 3 3 3 3 3 3 3 3 3 3 3 3 4 4 7 9 10 10 10 9 9 9 10 10 10 10 11 12 13 13 13 12 11 11 12 14 15 15 15 16 16 15 15 15 15 15 14 14 14 14 15 15
4 4 3 3 3 3 4 4 4 4 4 4 4 5 5 5 7 10 11 11 10 10 10 10 10 11 11 11 11 12 12 13 14 14 14 14 14 15 16 16 16 16 16 15 15 14 14 14 14 13 13 14 14 14
4 4 4 4 4 4 4 5 5 5 5 5 5 6 6 6 7 9 11 12 11 11 11 11 11 12 13 13 13 13 13 14 15 15 16 16 16 16 16 16 16 16 15 15 14 14 14 14 13 13 13 14 14 14
4 4 4 4 4 5 5 5 5 5 6 6 6 6 6 6 7 9 12 13 12 11 11 12 12 13 13 14 14 14 15 16 16 17 17 17 17 17 17 16 16 16 15 14 14 14 14 14 13 13 14 14 14 14